TimePDT,TemperatureF,Dew PointF,Humidity,Sea Level PressureIn,VisibilityMPH,Wind Direction,Wind SpeedMPH,Gust SpeedMPH,PrecipitationIn,Events,Conditions,WindDirDegrees,DateUTC
12:15 AM,51.8,32.0,47,30.15,10.0,WNW,15.0,19.6,N/A,,Partly Cloudy,300,2013-06-14 07:15:00
12:35 AM,50.0,32.0,50,30.15,10.0,NW,13.8,-,N/A,,Clear,310,2013-06-14 07:35:00
12:55 AM,51.8,32.0,47,30.15,10.0,WNW,15.0,20.7,N/A,,Scattered Clouds,300,2013-06-14 07:55:00
1:15 AM,50.0,32.0,50,30.16,10.0,WNW,13.8,17.3,N/A,,Partly Cloudy,300,2013-06-14 08:15:00
1:35 AM,50.0,33.8,54,30.16,10.0,NW,17.3,-,N/A,,Mostly Cloudy,310,2013-06-14 08:35:00
1:55 AM,48.2,33.8,58,30.17,10.0,NNW,13.8,-,N/A,,Overcast,340,2013-06-14 08:55:00
2:15 AM,48.2,35.6,62,30.17,10.0,NNW,11.5,-,N/A,,Overcast,330,2013-06-14 09:15:00
2:35 AM,48.2,35.6,62,30.17,10.0,NNW,11.5,-,N/A,,Overcast,330,2013-06-14 09:35:00
2:55 AM,48.2,35.6,62,30.18,10.0,NNW,10.4,-,N/A,,Overcast,340,2013-06-14 09:55:00
3:15 AM,48.2,33.8,58,30.18,10.0,North,8.1,-,N/A,,Overcast,350,2013-06-14 10:15:00
3:35 AM,46.4,35.6,66,30.18,10.0,North,9.2,-,N/A,,Overcast,10,2013-06-14 10:35:00
3:55 AM,46.4,35.6,66,30.18,10.0,NNE,5.8,-,N/A,,Overcast,20,2013-06-14 10:55:00
4:15 AM,46.4,33.8,62,30.18,10.0,Calm,Calm,-,N/A,,Overcast,0,2013-06-14 11:15:00
4:35 AM,46.4,35.6,66,30.19,10.0,NNE,3.5,-,N/A,,Overcast,20,2013-06-14 11:35:00
4:55 AM,46.4,35.6,66,30.19,10.0,WNW,5.8,-,N/A,,Overcast,300,2013-06-14 11:55:00
5:15 AM,48.2,35.6,62,30.20,10.0,WNW,8.1,-,N/A,,Overcast,300,2013-06-14 12:15:00
5:35 AM,48.2,35.6,62,30.21,10.0,ENE,4.6,-,N/A,,Overcast,60,2013-06-14 12:35:00
5:55 AM,48.2,35.6,62,30.21,10.0,Calm,Calm,-,N/A,,Overcast,0,2013-06-14 12:55:00
6:15 AM,48.2,35.6,62,30.21,10.0,Calm,Calm,-,N/A,,Overcast,0,2013-06-14 13:15:00
6:35 AM,48.2,35.6,62,30.21,10.0,Calm,Calm,-,N/A,,Overcast,0,2013-06-14 13:35:00
6:55 AM,50.0,35.6,58,30.21,10.0,East,4.6,-,N/A,,Overcast,90,2013-06-14 13:55:00
7:15 AM,50.0,35.6,58,30.22,10.0,East,3.5,-,N/A,,Overcast,100,2013-06-14 14:15:00
7:35 AM,51.8,35.6,54,30.21,10.0,East,6.9,-,N/A,,Overcast,100,2013-06-14 14:35:00
7:55 AM,51.8,35.6,54,30.21,10.0,ESE,5.8,-,N/A,,Mostly Cloudy,110,2013-06-14 14:55:00
8:15 AM,53.6,35.6,51,30.21,10.0,SE,5.8,-,N/A,,Mostly Cloudy,130,2013-06-14 15:15:00
8:35 AM,55.4,35.6,47,30.21,10.0,ESE,8.1,-,N/A,,Mostly Cloudy,120,2013-06-14 15:35:00
8:55 AM,55.4,35.6,47,30.21,10.0,North,4.6,-,N/A,,Mostly Cloudy,10,2013-06-14 15:55:00
9:15 AM,55.4,35.6,47,30.21,10.0,Calm,Calm,-,N/A,,Mostly Cloudy,0,2013-06-14 16:15:00
9:35 AM,55.4,35.6,47,30.21,10.0,NE,3.5,-,N/A,,Mostly Cloudy,50,2013-06-14 16:35:00
9:55 AM,57.2,35.6,44,30.20,10.0,North,3.5,-,N/A,,Mostly Cloudy,350,2013-06-14 16:55:00
10:15 AM,57.2,35.6,44,30.20,10.0,Calm,Calm,-,N/A,,Overcast,0,2013-06-14 17:15:00
10:35 AM,57.2,35.6,44,30.20,10.0,Calm,Calm,-,N/A,,Mostly Cloudy,0,2013-06-14 17:35:00
10:55 AM,57.2,35.6,44,30.19,10.0,Calm,Calm,-,N/A,,Mostly Cloudy,0,2013-06-14 17:55:00
11:15 AM,60.8,35.6,39,30.19,10.0,SSE,8.1,-,N/A,,Overcast,150,2013-06-14 18:15:00
11:35 AM,60.8,35.6,39,30.18,10.0,SE,6.9,-,N/A,,Scattered Clouds,140,2013-06-14 18:35:00
11:55 AM,62.6,35.6,37,30.17,10.0,Calm,Calm,-,N/A,,Clear,0,2013-06-14 18:55:00
12:15 PM,62.6,35.6,37,30.17,10.0,ENE,6.9,-,N/A,,Clear,70,2013-06-14 19:15:00
12:35 PM,64.4,35.6,34,30.16,10.0,South,4.6,-,N/A,,Clear,190,2013-06-14 19:35:00
12:55 PM,64.4,35.6,34,30.15,10.0,ESE,5.8,-,N/A,,Clear,120,2013-06-14 19:55:00
1:15 PM,66.2,35.6,32,30.14,10.0,North,5.8,-,N/A,,Clear,10,2013-06-14 20:15:00
1:35 PM,66.2,33.8,30,30.14,10.0,Calm,Calm,-,N/A,,Clear,0,2013-06-14 20:35:00
1:55 PM,66.2,35.6,32,30.13,10.0,NE,6.9,-,N/A,,Clear,40,2013-06-14 20:55:00
2:15 PM,68.0,35.6,30,30.12,10.0,NE,5.8,-,N/A,,Clear,40,2013-06-14 21:15:00
2:35 PM,68.0,35.6,30,30.12,10.0,North,11.5,-,N/A,,Clear,10,2013-06-14 21:35:00
2:55 PM,69.8,35.6,28,30.11,10.0,North,10.4,18.4,N/A,,Clear,10,2013-06-14 21:55:00
3:15 PM,69.8,35.6,28,30.11,10.0,NNW,4.6,-,N/A,,Clear,330,2013-06-14 22:15:00
3:35 PM,69.8,35.6,28,30.10,10.0,NNW,5.8,-,N/A,,Clear,340,2013-06-14 22:35:00
3:55 PM,69.8,35.6,28,30.09,10.0,WNW,6.9,-,N/A,,Clear,300,2013-06-14 22:55:00
4:15 PM,69.8,35.6,28,30.09,10.0,NNE,5.8,-,N/A,,Clear,30,2013-06-14 23:15:00
4:35 PM,69.8,35.6,28,30.08,10.0,NNE,6.9,-,N/A,,Clear,30,2013-06-14 23:35:00
4:55 PM,71.6,35.6,27,30.07,10.0,NNE,5.8,-,N/A,,Clear,30,2013-06-14 23:55:00
5:15 PM,69.8,35.6,28,30.07,10.0,North,4.6,-,N/A,,Clear,360,2013-06-15 00:15:00
5:35 PM,71.6,35.6,27,30.06,10.0,ENE,9.2,-,N/A,,Clear,60,2013-06-15 00:35:00
5:55 PM,69.8,35.6,28,30.05,10.0,NNE,4.6,-,N/A,,Clear,20,2013-06-15 00:55:00
6:15 PM,69.8,33.8,27,30.05,10.0,NNE,3.5,-,N/A,,Partly Cloudy,30,2013-06-15 01:15:00
6:35 PM,71.6,33.8,25,30.04,10.0,ESE,5.8,-,N/A,,Partly Cloudy,110,2013-06-15 01:35:00
6:55 PM,69.8,33.8,27,30.04,10.0,Calm,Calm,-,N/A,,Clear,0,2013-06-15 01:55:00
7:15 PM,69.8,33.8,27,30.04,10.0,NE,3.5,-,N/A,,Clear,50,2013-06-15 02:15:00
7:35 PM,69.8,35.6,28,30.04,10.0,North,5.8,-,N/A,,Partly Cloudy,360,2013-06-15 02:35:00
7:55 PM,66.2,37.4,35,30.04,10.0,North,5.8,-,N/A,,Partly Cloudy,360,2013-06-15 02:55:00
8:15 PM,62.6,35.6,37,30.04,10.0,North,6.9,-,N/A,,Clear,360,2013-06-15 03:15:00
8:35 PM,62.6,37.4,39,30.04,10.0,WNW,5.8,-,N/A,,Clear,300,2013-06-15 03:35:00
8:55 PM,60.8,35.6,39,30.04,10.0,SSW,6.9,-,N/A,,Clear,200,2013-06-15 03:55:00
9:15 PM,57.2,33.8,41,30.04,10.0,SSW,8.1,-,N/A,,Clear,200,2013-06-15 04:15:00
9:35 PM,55.4,33.8,44,30.05,10.0,SSW,8.1,-,N/A,,Clear,200,2013-06-15 04:35:00
9:55 PM,55.4,33.8,44,30.05,10.0,SSW,8.1,-,N/A,,Clear,200,2013-06-15 04:55:00
10:15 PM,53.6,33.8,47,30.06,10.0,Calm,Calm,-,N/A,,Clear,0,2013-06-15 05:15:00
10:35 PM,55.4,33.8,44,30.05,10.0,SSW,8.1,-,N/A,,Clear,200,2013-06-15 05:35:00
10:55 PM,53.6,32.0,44,30.05,10.0,South,4.6,-,N/A,,Clear,180,2013-06-15 05:55:00
11:15 PM,51.8,30.2,44,30.06,10.0,Calm,Calm,-,N/A,,Clear,0,2013-06-15 06:15:00
11:35 PM,50.0,30.2,47,30.06,10.0,ESE,3.5,-,N/A,,Clear,120,2013-06-15 06:35:00
11:55 PM,51.8,32.0,47,30.06,10.0,WSW,5.8,-,N/A,,Clear,240,2013-06-15 06:55:00